Dewpoint
18 17 17 16 14 15 16 15 13 14 14 15 15 14 14 14 15 14 14 15 16 14 14 16 16 14 13 15 15 14 14 15 14 16 15 13 15 14 14 16 17 15 15
18 17 17 16 16 15 16 16 14 14 15 15 12 7 16 14 16 15 14 14 15 15 14 14 16 17 15 13 15 16 16 15 16 15 16 16 16 15 15 14 13 15 17
17 17 17 17 16 16 15 15 16 14 14 15 15 15 13 14 15 14 15 13 15 15 15 15 15 14 15 15 16 13 16 15 14 15 13 15 15 16 15 15 15 15 13
16 17 17 16 16 16 16 15 15 16 15 14 15 15 13 13 13 15 15 14 13 14 15 16 15 15 15 15 14 14 15 16 16 16 16 15 15 15 15 15 15 14 15
17 16 17 16 16 16 16 15 16 15 16 15 14 16 16 15 13 14 15 15 14 14 13 15 15 14 15 15 16 15 16 15 15 15 15 14 14 15 15 14 14 15 15
16 17 16 17 17 16 16 15 15 16 15 16 15 14 14 16 16 14 16 16 15 14 14 13 14 16 16 16 16 14 14 16 16 16 16 16 16 15 16 16 16 15 13
14 16 16 16 16 16 16 16 15 15 16 15 15 15 14 14 12 15 15 15 14 16 16 14 14 15 15 16 15 15 15 11 12 13 13 9 12 14 14 15 15 14 13
14 14 14 15 16 16 16 16 16 16 16 16 15 15 15 15 13 13 15 15 15 14 13 13 12 14 13 15 16 16 16 16 15 13 12 11 12 12 13 13 14 13 13
11 13 15 12 15 16 16 16 16 16 16 15 15 15 15 15 14 13 15 15 14 13 12 11 10 13 15 14 15 14 15 15 13 14 16 16 16 16 15 16 15 15 14
10 12 13 14 13 15 16 16 16 16 17 16 16 15 14 14 14 12 13 14 13 12 9 8 9 9 12 12 12 13 14 14 13 13 15 16 16 16 16 17 16 15 16
10 11 12 13 13 12 13 12 16 16 16 16 16 16 15 15 12 11 11 13 12 11 10 11 13 13 14 13 14 14 14 13 14 14 14 15 15 15 15 15 15 15 15
11 10 11 13 13 13 10 8 7 10 16 16 16 16 16 16 13 10 9 9 10 11 12 13 14 15 15 15 12 12 13 14 15 14 14 14 15 16 15 16 16 16 15
10 11 10 11 13 13 13 11 11 7 8 11 16 17 16 16 16 16 15 14 13 14 13 15 16 14 14 13 11 11 13 13 14 15 15 14 14 15 15 16 16 16 15
11 10 11 10 12 12 13 13 13 12 12 10 11 13 17 17 17 16 14 14 13 14 14 14 15 15 14 14 12 12 12 12 13 14 13 15 16 16 15 15 15 15 12
11 11 10 11 10 12 12 12 13 12 11 11 11 9 11 15 15 13 16 14 13 13 14 15 15 15 14 14 13 15 14 14 13 12 15 15 15 16 15 15 15 14 12
11 11 11 11 10 11 10 11 11 12 12 12 10 8 9 10 11 10 16 14 15 15 14 15 15 15 15 15 15 14 14 14 13 14 15 15 15 15 15 13 12 11 11
11 11 10 9 11 11 9 9 11 11 12 12 12 9 9 9 11 12 14 16 15 14 14 16 16 16 16 15 15 14 14 13 12 15 15 15 15 15 13 12 11 9 9
11 11 10 11 11 11 10 9 9 10 12 12 12 12 11 7 8 10 14 14 12 14 15 15 16 16 14 13 13 13 13 13 14 14 14 14 14 14 11 10 10 9 9
11 11 10 11 11 10 9 10 10 9 11 13 12 13 12 11 12 12 13 15 12 8 12 16 16 14 13 14 13 13 14 12 13 14 14 14 13 11 10 10 9 9 9
11 10 10 10 10 11 10 9 8 7 8 9 14 13 13 14 13 11 10 12 14 13 13 14 15 13 12 12 12 11 13 14 13 15 13 12 11 10 10 10 9 9 8
12 12 11 10 10 10 10 10 9 8 8 9 13 14 14 14 14 13 10 10 15 15 15 14 13 11 11 11 10 12 12 12 12 13 12 11 10 10 10 9 9 8 7
10 10 10 10 8 8 10 8 8 12 12 12 13 13 13 14 14 14 12 13 13 15 15 14 12 11 10 10 12 11 12 12 13 12 11 10 10 10 9 9 9 9 8
11 10 10 10 11 10 11 11 11 10 11 13 14 14 14 15 14 14 15 14 13 15 15 12 11 11 10 10 11 13 12 13 12 11 11 10 10 10 9 10 9 9 9
12 11 11 10 11 11 10 12 10 11 12 13 12 12 14 14 14 14 14 14 15 14 15 12 12 12 11 11 10 11 12 12 11 11 10 10 10 9 9 9 10 9 9
12 11 12 13 12 11 12 11 12 12 14 13 13 12 13 14 14 14 13 14 13 13 13 13 11 11 11 11 11 12 12 12 10 11 10 10 10 10 10 10 9 9 9
11 11 12 12 11 12 13 12 12 12 12 13 13 13 13 12 12 13 13 13 12 12 12 11 11 11 11 11 11 11 12 12 11 10 10 11 10 10 10 9 9 9 8
Wind_Speed
20 21 18 19 20 29 26 25 24 22 23 15 16 15 15 19 20 22 18 18 19 13 12 11 15 16 14 9 4 8 7 8 9 2 9 7 12 11 15 14 13 14 8
21 22 22 24 20 24 30 25 27 29 24 24 20 18 19 21 21 21 21 18 16 12 10 13 11 10 11 14 12 10 9 9 7 9 3 2 6 7 8 10 11 10 13
21 24 23 24 26 28 27 29 26 27 30 21 21 25 26 28 24 23 21 18 18 15 14 12 12 13 17 15 12 14 10 11 12 6 7 6 10 12 10 8 8 5 4
20 25 25 26 27 26 29 29 28 28 27 30 27 24 24 26 26 22 22 18 17 16 16 15 16 17 17 17 16 14 14 13 13 10 11 13 14 16 11 9 10 10 12
16 22 23 29 27 28 28 29 31 30 31 30 32 28 26 24 24 23 19 19 17 16 18 20 19 19 17 18 18 13 14 16 13 13 13 13 14 13 16 14 12 13 10
21 22 25 24 26 30 31 30 31 32 33 32 33 34 33 28 21 19 23 21 18 19 18 20 23 20 18 17 21 20 22 20 17 18 17 15 14 9 7 13 13 13 18
18 22 26 28 29 30 31 31 31 33 34 36 35 34 34 34 29 26 24 25 23 20 19 19 20 22 19 24 22 21 18 21 26 26 26 24 23 20 19 19 18 18 21
20 20 21 25 29 33 31 33 34 35 35 38 40 39 37 37 35 30 28 29 29 29 29 26 24 21 21 20 17 21 20 19 21 23 27 26 24 23 24 23 21 22 23
21 20 23 23 25 30 32 35 36 37 40 39 41 41 41 39 38 36 35 34 34 34 33 32 29 29 22 23 23 24 24 23 22 21 20 21 22 23 22 23 25 23 25
25 22 22 24 23 29 31 31 34 36 39 40 41 41 42 41 39 39 37 38 38 36 33 30 28 29 31 28 26 27 32 31 26 22 24 24 26 27 27 27 27 27 24
27 26 25 28 31 26 36 33 31 34 40 39 39 39 40 39 37 36 36 39 38 35 31 28 24 20 19 22 23 27 28 27 27 25 24 23 19 20 20 19 18 25 27
24 28 30 28 32 27 24 40 49 33 43 40 37 37 37 38 37 34 35 36 36 36 33 28 22 21 22 20 22 25 28 29 30 29 27 26 20 22 22 20 18 16 22
28 27 33 31 27 28 27 28 25 35 69 36 29 38 36 36 37 35 34 32 34 34 31 31 26 21 24 28 24 19 20 25 25 27 27 25 22 26 24 21 20 20 23
31 30 29 33 31 27 28 27 27 34 44 55 51 35 31 30 31 34 34 34 35 34 35 34 31 33 32 29 27 25 25 23 26 25 22 17 21 23 21 19 16 16 13
29 26 29 29 31 28 28 29 30 29 31 36 45 47 46 34 27 34 40 32 35 37 36 39 37 37 34 31 27 25 25 25 25 23 22 23 22 17 15 15 15 13 13
30 29 26 27 30 29 28 30 26 26 25 26 21 31 33 51 50 49 40 39 32 29 36 40 39 35 30 26 24 22 22 23 17 20 22 21 17 17 17 17 19 20 19
31 31 30 30 28 26 30 28 29 25 26 27 26 24 33 27 40 54 45 40 30 22 26 32 33 29 27 25 23 23 24 20 21 23 19 17 17 20 19 21 19 18 18
28 29 31 30 28 28 30 24 24 27 24 28 28 20 15 12 35 34 30 18 20 23 25 29 28 26 24 22 19 23 23 21 21 23 22 22 23 24 22 23 19 16 16
27 28 29 28 27 27 33 27 23 22 23 29 26 22 17 15 21 34 40 25 24 27 32 34 27 27 25 24 24 23 25 18 23 24 26 26 25 24 23 22 21 17 16
28 28 28 29 28 25 29 28 29 29 29 28 24 15 13 21 30 37 41 33 33 29 31 37 28 26 27 27 25 21 25 23 21 28 23 24 24 25 24 21 20 21 22
26 24 25 25 29 26 30 23 29 29 29 28 15 11 13 21 21 21 27 35 38 35 33 31 29 31 27 25 24 28 29 25 26 27 25 25 26 26 26 22 21 21 20
21 21 23 21 22 34 31 28 30 22 17 20 19 21 20 21 23 23 23 30 34 36 27 28 27 27 32 27 24 25 22 23 26 26 25 26 24 25 24 25 22 22 21
17 20 21 19 23 24 27 26 25 25 20 17 17 17 20 23 22 20 23 20 28 32 36 29 29 23 25 29 22 22 22 27 25 25 25 26 24 25 25 24 23 21 21
15 16 18 15 19 17 20 21 22 22 20 18 17 19 22 23 21 20 23 22 23 23 34 34 26 27 25 24 27 27 25 26 22 26 26 24 26 25 24 23 21 22 21
13 11 10 12 13 11 12 17 16 15 11 8 8 9 9 13 17 20 20 27 15 24 27 32 30 29 25 25 24 22 30 25 24 27 29 27 24 26 24 25 22 22 19
16 17 18 19 16 5 4 5 5 4 5 4 5 5 5 6 7 12 15 13 6 15 21 24 27 27 28 26 27 25 19 25 24 28 28 28 30 28 26 28 28 25 29
Wind_Direction
221 224 223 233 214 204 211 221 213 217 236 240 193 209 212 224 231 237 221 231 240 241 229 258 246 264 247 229 226 269 259 275 263 289 197 204 186 238 238 237 256 249 269
220 223 227 232 228 222 210 221 218 215 224 245 248 212 223 224 231 233 233 225 248 245 237 248 263 282 278 248 249 248 253 246 256 260 270 256 230 258 237 258 270 248 257
222 226 226 227 233 227 231 215 228 226 221 214 217 217 221 220 227 237 231 220 227 239 246 253 263 263 265 269 268 252 263 280 261 265 253 260 254 243 256 262 287 294 264
231 226 226 228 231 233 230 241 225 230 220 213 215 221 227 227 228 226 228 231 233 241 243 244 250 253 259 271 269 267 248 254 257 258 257 252 262 259 257 262 279 285 300
241 238 240 234 232 233 235 234 243 233 236 227 215 217 229 233 226 228 229 237 240 240 236 237 237 245 258 268 274 275 267 258 261 256 267 277 280 266 258 258 259 269 297
257 249 242 249 236 235 234 236 236 239 237 236 236 227 222 227 228 229 231 235 235 246 245 243 239 240 247 251 261 275 265 264 263 256 259 263 269 270 238 239 254 262 271
279 262 255 248 250 245 241 237 236 237 239 243 238 235 230 231 227 222 230 228 235 232 245 253 247 244 242 261 269 268 270 257 259 260 261 260 259 262 264 259 260 266 268
299 298 277 262 253 250 246 240 236 234 233 237 243 241 237 238 237 219 225 230 235 236 241 248 254 251 235 249 258 256 253 257 259 262 263 269 269 270 269 270 271 270 268
294 292 292 289 263 249 247 247 242 238 236 235 241 242 239 238 237 228 224 229 235 242 249 254 250 251 243 236 253 262 264 265 268 267 265 271 275 277 275 272 271 273 273
288 291 287 288 275 261 244 244 249 247 241 237 240 242 239 239 238 238 234 235 240 246 250 250 247 245 247 250 254 250 256 262 266 265 263 265 267 273 272 267 266 261 264
280 281 284 278 279 282 252 255 240 247 248 240 238 241 241 239 240 240 239 237 240 243 243 247 246 239 242 241 246 254 256 259 259 264 264 272 273 273 272 271 262 252 258
281 281 276 274 281 279 275 249 255 261 261 241 237 237 240 242 242 242 241 239 239 239 233 239 241 247 237 242 259 259 256 256 255 258 262 267 265 258 263 263 258 257 253
278 279 272 269 271 275 276 268 246 256 265 282 252 237 239 238 241 241 240 234 237 236 236 224 226 230 232 247 252 258 255 248 249 255 261 262 248 256 262 258 253 256 265
278 276 276 266 268 271 269 264 259 249 243 251 269 286 249 239 247 246 244 240 232 231 229 228 230 236 243 252 253 258 252 252 255 258 260 246 247 253 254 244 253 259 268
274 272 272 272 269 268 265 270 270 266 259 244 235 253 246 253 244 277 254 242 231 226 227 229 232 235 241 250 254 253 250 254 251 241 229 237 247 240 230 246 226 245 257
276 266 264 267 264 265 263 261 267 262 258 256 250 256 238 256 262 275 250 242 235 229 230 229 234 239 243 247 249 248 241 243 234 232 234 234 230 217 223 226 228 210 231
277 266 263 258 266 266 265 265 259 271 256 247 253 282 234 274 264 256 245 241 228 229 236 225 225 233 236 242 230 236 241 244 234 224 224 223 219 215 226 222 233 227 217
277 268 263 260 256 265 265 271 268 270 263 251 240 228 250 292 258 277 212 199 216 264 239 225 223 230 236 238 223 230 235 235 226 217 220 219 217 224 217 219 229 232 209
280 272 263 256 254 262 252 261 264 268 267 260 246 230 234 237 238 239 244 245 234 225 230 229 215 227 227 230 224 227 235 237 223 215 222 223 220 214 215 227 218 230 219
285 276 268 259 245 255 251 251 257 265 260 268 248 229 225 221 232 241 241 237 231 230 225 226 216 225 225 225 227 231 220 217 229 217 228 213 217 216 215 228 213 227 224
291 284 277 263 256 260 258 254 243 247 255 264 263 235 258 267 270 254 242 226 222 229 230 227 223 218 224 225 226 217 224 236 224 222 230 216 216 218 216 218 223 223 234
295 300 290 272 277 258 248 247 250 259 236 252 273 281 256 253 257 266 250 234 227 219 216 224 221 218 214 216 229 230 234 214 215 230 234 214 219 223 222 222 221 220 222
300 294 291 281 254 245 247 245 242 252 259 246 250 253 258 250 249 245 255 257 234 228 211 218 226 218 211 210 219 223 214 212 221 224 228 217 219 221 226 225 228 224 226
308 304 299 292 275 251 238 249 248 238 239 246 259 260 247 247 254 257 249 242 246 236 219 216 210 217 214 215 219 218 225 219 222 221 223 217 216 221 224 226 226 232 230
324 321 316 311 306 291 257 242 246 237 236 264 289 295 270 257 256 253 243 234 244 232 219 217 220 214 209 216 222 225 221 222 213 218 223 216 215 221 226 224 230 239 241
14 8 3 351 347 303 294 270 235 237 226 246 270 293 294 293 272 268 241 240 242 203 217 211 215 219 221 225 225 216 226 222 218 212 224 222 221 222 228 233 240 243 251
Height
1518 1519 1519 1519 1520 1522 1526 1530 1534 1536 1534 1538 1534 1546 1544 1548 1554 1556 1555 1554 1553 1553 1554 1555 1556 1557 1559 1560 1560 1562 1563 1566 1568 1565 1565 1564 1566 1570 1571 1571 1569 1568 1568
1515 1516 1517 1517 1518 1518 1521 1527 1531 1533 1531 1529 1532 1533 1540 1545 1549 1552 1552 1552 1550 1552 1553 1554 1555 1556 1557 1558 1559 1560 1561 1564 1566 1565 1565 1564 1565 1566 1568 1569 1567 1565 1565
1510 1512 1514 1515 1515 1515 1517 1522 1526 1531 1531 1531 1532 1535 1539 1542 1545 1548 1547 1546 1546 1548 1551 1553 1554 1555 1555 1555 1556 1557 1558 1559 1562 1564 1563 1564 1563 1563 1564 1564 1564 1562 1561
1507 1508 1509 1510 1512 1513 1514 1516 1521 1524 1529 1529 1531 1533 1537 1539 1541 1540 1541 1541 1542 1545 1549 1552 1553 1553 1553 1553 1553 1553 1554 1555 1558 1560 1562 1563 1562 1561 1560 1560 1559 1559 1558
1504 1506 1507 1506 1508 1511 1511 1512 1514 1519 1521 1524 1527 1529 1531 1532 1532 1533 1534 1535 1536 1540 1544 1548 1548 1550 1549 1550 1551 1551 1550 1550 1552 1555 1556 1556 1557 1556 1556 1557 1555 1556 1555
1501 1501 1501 1503 1503 1505 1508 1509 1509 1511 1514 1517 1519 1521 1522 1523 1525 1527 1528 1530 1531 1535 1538 1541 1543 1545 1545 1546 1546 1547 1547 1547 1548 1550 1551 1552 1552 1553 1552 1552 1551 1552 1552
1496 1496 1497 1496 1497 1499 1502 1503 1504 1505 1507 1508 1511 1513 1514 1516 1518 1520 1523 1525 1528 1530 1531 1533 1536 1538 1541 1541 1542 1542 1543 1543 1543 1545 1545 1546 1547 1549 1548 1548 1549 1548 1548
1494 1492 1491 1492 1492 1492 1495 1495 1496 1498 1500 1501 1503 1506 1508 1509 1511 1515 1517 1520 1522 1524 1526 1528 1528 1530 1533 1535 1535 1536 1537 1537 1539 1540 1540 1541 1542 1543 1544 1543 1543 1543 1543
1490 1488 1486 1484 1483 1484 1485 1485 1485 1489 1490 1491 1495 1499 1500 1502 1505 1509 1512 1513 1515 1516 1518 1520 1521 1523 1525 1528 1530 1529 1531 1532 1534 1535 1535 1536 1536 1537 1537 1538 1537 1538 1537
1485 1483 1481 1478 1476 1475 1474 1476 1479 1483 1483 1486 1487 1491 1493 1494 1497 1501 1504 1507 1508 1509 1510 1511 1513 1515 1517 1520 1522 1523 1523 1524 1526 1528 1529 1529 1530 1530 1531 1531 1531 1532 1533
1478 1477 1475 1472 1468 1468 1469 1469 1468 1473 1477 1478 1481 1484 1486 1487 1488 1491 1495 1497 1498 1500 1502 1503 1504 1507 1509 1511 1514 1515 1516 1518 1519 1521 1522 1523 1524 1524 1523 1524 1524 1525 1526
1471 1470 1467 1465 1462 1462 1461 1461 1461 1465 1468 1471 1471 1475 1479 1479 1479 1481 1484 1488 1490 1492 1494 1496 1498 1499 1501 1503 1506 1507 1508 1509 1511 1514 1515 1516 1518 1517 1518 1519 1519 1521 1520
1464 1462 1459 1457 1457 1455 1452 1451 1455 1447 1433 1457 1460 1464 1467 1469 1471 1471 1473 1477 1482 1484 1486 1490 1492 1493 1494 1497 1498 1499 1500 1502 1504 1506 1507 1509 1511 1512 1513 1513 1514 1515 1515
1454 1454 1452 1450 1450 1450 1448 1446 1444 1442 1448 1419 1443 1455 1458 1459 1465 1465 1465 1468 1474 1476 1477 1480 1483 1486 1487 1489 1490 1491 1492 1494 1496 1498 1500 1503 1504 1506 1506 1507 1508 1509 1510
1444 1446 1444 1443 1442 1445 1443 1440 1436 1436 1432 1436 1437 1442 1446 1449 1452 1454 1464 1460 1463 1466 1472 1473 1473 1476 1478 1480 1481 1483 1485 1486 1488 1490 1494 1496 1498 1499 1501 1503 1504 1505 1506
1435 1436 1436 1436 1435 1435 1436 1435 1434 1433 1431 1431 1433 1436 1430 1437 1441 1445 1448 1454 1456 1461 1464 1465 1465 1467 1469 1471 1473 1475 1477 1478 1481 1484 1487 1489 1491 1493 1496 1498 1500 1502 1503
1426 1426 1427 1428 1427 1427 1427 1428 1427 1425 1425 1425 1423 1420 1427 1434 1430 1432 1451 1444 1453 1456 1459 1458 1458 1459 1463 1465 1467 1469 1470 1472 1475 1478 1481 1483 1485 1489 1492 1494 1495 1496 1498
1418 1417 1418 1418 1419 1420 1419 1419 1417 1416 1415 1414 1418 1421 1422 1418 1422 1432 1424 1423 1433 1437 1451 1453 1451 1452 1456 1458 1460 1463 1465 1467 1469 1473 1476 1478 1480 1483 1486 1489 1490 1492 1493
1410 1410 1409 1410 1410 1411 1411 1411 1411 1410 1409 1406 1406 1412 1412 1414 1417 1424 1426 1423 1430 1436 1438 1441 1443 1447 1450 1452 1455 1458 1459 1461 1463 1467 1471 1474 1477 1479 1481 1484 1486 1488 1490
1402 1402 1402 1403 1404 1405 1405 1404 1404 1404 1404 1403 1401 1399 1402 1408 1412 1414 1419 1420 1421 1421 1423 1430 1438 1442 1445 1446 1448 1451 1455 1457 1459 1461 1464 1468 1472 1475 1476 1478 1481 1483 1484
1396 1394 1394 1397 1400 1401 1401 1400 1400 1399 1398 1396 1388 1395 1391 1402 1400 1406 1408 1411 1413 1414 1419 1425 1430 1433 1439 1442 1442 1444 1448 1451 1453 1456 1459 1462 1466 1469 1472 1474 1476 1479 1479
1391 1389 1389 1391 1391 1390 1393 1395 1394 1390 1389 1390 1387 1388 1393 1396 1397 1396 1398 1401 1404 1409 1416 1419 1423 1426 1430 1434 1435 1439 1441 1444 1448 1450 1454 1458 1462 1466 1468 1471 1472 1472 1473
1386 1383 1382 1382 1384 1386 1384 1385 1384 1383 1385 1387 1389 1390 1388 1391 1393 1396 1395 1396 1399 1404 1410 1416 1417 1419 1421 1427 1431 1432 1434 1437 1441 1445 1449 1454 1458 1461 1464 1467 1468 1469 1468
1384 1381 1379 1375 1376 1377 1377 1376 1376 1378 1382 1383 1383 1383 1386 1387 1389 1392 1393 1394 1396 1399 1403 1408 1411 1413 1417 1420 1423 1427 1429 1432 1436 1440 1443 1448 1453 1455 1457 1460 1463 1464 1465
1381 1378 1376 1374 1371 1368 1373 1372 1372 1374 1376 1378 1379 1382 1382 1384 1384 1383 1387 1390 1391 1395 1397 1401 1405 1408 1411 1415 1417 1419 1422 1425 1430 1434 1437 1441 1444 1449 1451 1453 1456 1459 1460
1383 1379 1376 1373 1370 1369 1367 1369 1368 1370 1373 1374 1376 1376 1376 1375 1380 1384 1383 1385 1384 1389 1394 1396 1399 1404 1407 1410 1412 1415 1417 1421 1425 1428 1432 1436 1438 1441 1444 1446 1448 1451 1454